| time (UTC) | temp F | wind direction | speed MPH | gust MPH | rain 1hr in | rain 24hr in | rain mn in | humidity % | barometer mb |
| 20260504231508 | 42 | 332 | 3.0 | 6.0 | 0.01 | 0.01 | 0.01 | 78 | 1016.3 |
| 20260504230008 | 42 | 332 | 0.0 | 4.0 | 0.01 | 0.01 | 0.01 | 84 | 1016.1 |
| 20260504224508 | 40 | 332 | 2.0 | 14.0 | 0.01 | 0.01 | 0.01 | 82 | 1016.3 |
| 20260504223006 | 44 | 302 | 15.0 | 23.0 | 0.00 | 0.00 | 0.00 | 65 | 1016.2 |
| 20260504221505 | 51 | 337 | 5.0 | 13.0 | 0.00 | 0.00 | 0.00 | 44 | 1015.4 |
| 20260504220001 | 52 | 306 | 7.0 | 14.0 | 0.00 | 0.00 | 0.00 | 39 | 1015.6 |
| 20260504214600 | 53 | 296 | 2.0 | 7.0 | 0.00 | 0.00 | 0.00 | 39 | 1015.7 |
| 20260504213105 | 54 | 290 | 2.0 | 7.0 | 0.00 | 0.00 | 0.00 | 39 | 1015.8 |
| 20260504211605 | 53 | 292 | 5.0 | 13.0 | 0.00 | 0.00 | 0.00 | 47 | 1016.1 |
| 20260504210057 | 53 | 244 | 3.0 | 11.0 | 0.00 | 0.00 | 0.00 | 41 | 1016.2 |
| 20260504204602 | 52 | 296 | 5.0 | 16.0 | 0.00 | 0.00 | 0.00 | 44 | 1016.2 |
| 20260504203103 | 53 | 340 | 8.0 | 19.0 | 0.00 | 0.00 | 0.00 | 36 | 1016.0 |
| 20260504201552 | 56 | 308 | 8.0 | 14.0 | 0.00 | 0.00 | 0.00 | 36 | 1016.0 |
| 20260504200051 | 53 | 302 | 8.0 | 14.0 | 0.00 | 0.00 | 0.00 | 37 | 1016.1 |
| 20260504194549 | 51 | 336 | 9.0 | 16.0 | 0.00 | 0.00 | 0.00 | 34 | 1016.1 |
| 20260504193048 | 51 | 308 | 9.0 | 16.0 | 0.00 | 0.00 | 0.00 | 34 | 1016.1 |
| 20260504191547 | 53 | 294 | 9.0 | 21.0 | 0.00 | 0.00 | 0.00 | 30 | 1016.2 |
| 20260504190046 | 53 | 334 | 6.0 | 12.0 | 0.00 | 0.00 | 0.00 | 34 | 1016.4 |
| 20260504184543 | 54 | 327 | 4.0 | 10.0 | 0.00 | 0.00 | 0.00 | 32 | 1016.6 |
| 20260504183041 | 54 | 297 | 4.0 | 15.0 | 0.00 | 0.00 | 0.00 | 35 | 1017.0 |
| 20260504181538 | 53 | 294 | 6.0 | 20.0 | 0.00 | 0.00 | 0.00 | 38 | 1017.2 |
| 20260504180036 | 51 | 269 | 10.0 | 22.0 | 0.00 | 0.00 | 0.00 | 46 | 1017.5 |
| 20260504174534 | 49 | 305 | 8.0 | 14.0 | 0.00 | 0.00 | 0.00 | 51 | 1017.7 |
| 20260504173036 | 46 | 271 | 4.0 | 10.0 | 0.00 | 0.00 | 0.00 | 50 | 1017.7 |
| 20260504171532 | 46 | 292 | 7.0 | 15.0 | 0.00 | 0.00 | 0.00 | 53 | 1017.6 |
| 20260504081532 | 30 | 277 | 1.0 | 4.0 | 0.00 | 0.00 | 0.00 | 71 | 1018.3 |
| 20260504050007 | 36 | 277 | 0.0 | 6.0 | 0.00 | 0.00 | 0.00 | 59 | 1019.3 |
| 20260504044505 | 37 | 277 | 1.0 | 6.0 | 0.00 | 0.00 | 0.00 | 57 | 1019.4 |
| 20260504043005 | 37 | 277 | 1.0 | 4.0 | 0.00 | 0.00 | 0.00 | 57 | 1019.5 |
| 20260504041504 | 38 | 277 | 1.0 | 4.0 | 0.00 | 0.00 | 0.00 | 55 | 1019.5 |
| 20260504040004 | 39 | 277 | 3.0 | 7.0 | 0.00 | 0.00 | 0.00 | 53 | 1019.5 |
| 20260504034504 | 40 | 277 | 3.0 | 8.0 | 0.00 | 0.00 | 0.00 | 53 | 1019.5 |
| 20260504033007 | 41 | 277 | 5.0 | 8.0 | 0.00 | 0.00 | 0.00 | 52 | 1019.5 |
| 20260504031504 | 41 | 317 | 3.0 | 8.0 | 0.00 | 0.00 | 0.00 | 51 | 1019.4 |
| 20260504030002 | 43 | 334 | 1.0 | 4.0 | 0.00 | 0.00 | 0.00 | 48 | 1019.3 |
| 20260504024502 | 43 | 334 | 0.0 | 1.0 | 0.00 | 0.00 | 0.00 | 46 | 1019.3 |
| 20260504023002 | 44 | 334 | 0.0 | 4.0 | 0.00 | 0.00 | 0.00 | 44 | 1019.2 |
| 20260504021600 | 45 | 334 | 2.0 | 10.0 | 0.00 | 0.00 | 0.00 | 43 | 1019.2 |
| 20260504014606 | 46 | 331 | 2.0 | 6.0 | 0.00 | 0.00 | 0.00 | 41 | 1019.2 |
| 20260504013100 | 47 | 331 | 4.0 | 11.0 | 0.00 | 0.00 | 0.00 | 40 | 1018.9 |
| 20260504011559 | 48 | 337 | 5.0 | 15.0 | 0.00 | 0.00 | 0.00 | 38 | 1019.0 |
| 20260504010105 | 50 | 284 | 4.0 | 9.0 | 0.00 | 0.00 | 0.00 | 31 | 1018.8 |
| 20260504004600 | 51 | 263 | 2.0 | 14.0 | 0.00 | 0.00 | 0.00 | 29 | 1018.8 |
| 20260504003059 | 51 | 240 | 6.0 | 13.0 | 0.00 | 0.00 | 0.00 | 28 | 1018.8 |
| 20260504001555 | 53 | 284 | 6.0 | 11.0 | 0.00 | 0.00 | 0.00 | 28 | 1018.9 |
| 20260504000134 | 55 | 304 | 5.0 | 13.0 | 0.00 | 0.00 | 0.00 | 25 | 1019.1 |
| 20260503234559 | 55 | 279 | 5.0 | 11.0 | 0.00 | 0.00 | 0.00 | 25 | 1019.2 |
| 20260503233054 | 53 | 278 | 8.0 | 15.0 | 0.00 | 0.00 | 0.00 | 26 | 1019.3 |